Main page
METAR-TAF:

METAR-TAF

Airports :

Birjand International Airport

Birjand, Iran

latitude: 32-52N, longitude: 059-12E, elevation: 1491 m

Current weather observation

The report was made 18 minutes ago, at 14:00 UTC
Wind 12 kt from the East/Northeast
Temperature 32°C
Humidity 10%
Pressure 1011 hPa
Visibility 10 km or more
no clouds below 1500 m and no cumulonimbus

METAR: OIMB 181400Z 06012KT CAVOK 32/M03 Q1011

Time: 18:48 (14:18 UTC)


TAF: missing

Weather observations and forecasts of more than 4000 airports (METAR and TAF reports).

The available stations are represented by yellow and red dots on the map.

Hover mouse over dot to see the name of the station.

Then click to see weather observations and forecasts.

To change the map : click on the green buttons with a black cross to zoom in, on the green button with a dash to zoom out, or on the green arrows for adjacent maps.


METAR-TAF: